Location: Cran-Gévrier
(45.9039°N, 6.1012°E)
Time: 03:09:25
(UTC+00:00)

PCSat - Pass Details

Date: 10 December 2023
Orbit: 784 x 791 km, 67.0° (Epoch: 22 February)

Event Time Altitude Azimuth Distance (km) Brightness Sun altitude
Exits shadow 04:54:53 15° 348° (NNW) 2,010 11.4 -21.8°
Drops below altitude 10° 04:56:45 10° 7° (N) 2,361 12.0 -21.5°
Sets 05:00:03 0° 27° (NNE) 3,295 13.0 -21.0°
